Regional Weather Roundup
Issued by NWS

Home | Current Version | Previous Version | Text Only | Print | Product List | Glossary On
Versions: 1 2 3 4 5 6 7 8 9 10 11 12 13 14 15 16 17 18 19 20 21 22 23 24 25 26 27 28 29 30 31 32 33 34 35 36 37 38 39 40 41 42 43 44 45 46 47 48 49 50
000
ASUS46 KSEW 300710
RWRWA

WASHINGTON REGIONAL WEATHER ROUNDUP
NATIONAL WEATHER SERVICE SEATTLE WA
1200 AM PDT MON MAR 30 2015

NOTE:"FAIR" INDICATES FEW OR NO CLOUDS BELOW 12,000 FEET WITH NO
SIGNIFICANT WEATHER AND/OR OBSTRUCTIONS TO VISIBILITY.

WAZ505-507>509-300800-
SEATTLE, TACOMA, EVERETT, AND VICINITY

CITY           SKY/WX    TMP DP  RH WIND       PRES   REMARKS
EVERETT        CLOUDY    54  47  77 SE12      30.14F
BOEING FIELD   CLOUDY    58  49  72 SE7       30.15F
RENTON         CLOUDY    57  48  72 SE5       30.15F
SEATAC AIRPORT CLOUDY    54  49  83 S5        30.16F
JBLM-MCCHORD   NOT AVBL
PUYALLUP       CLOUDY    54  50  87 CALM      30.16F
BREMERTON      MOCLDY    54  52  94 S12       30.16F
JBLM-FT LEWIS  NOT AVBL
TACOMA NARROWS CLOUDY    53  49  86 S5        30.16F
$$

WAZ001-503-506-510-514-515-300800-
NORTH INTERIOR

CITY           SKY/WX    TMP DP  RH WIND       PRES   REMARKS
BELLINGHAM     CLOUDY    50  48  93 NW3       30.12F FOG
FRIDAY HARBOR  CLOUDY    50  49  96 CALM      30.12F
EASTSOUND      CLOUDY    52  50  93 CALM      30.10F
PORT ANGELES   MOCLDY    48  46  93 CALM      30.11F
NAS WHIDBEY    CLOUDY    56  50  80 SE7       30.12F
ARLINGTON      CLOUDY    55  46  71 S5        30.15F
BURLINGTON     CLOUDY    54  50  87 MISG      30.13F
$$

WAZ020-022-039-040-504-511-512-300800-
SOUTHWEST INTERIOR

CITY           SKY/WX    TMP DP  RH WIND       PRES   REMARKS
SHELTON        CLOUDY    53  50  89 SW7       30.14S
OLYMPIA        CLOUDY    53  49  86 SE3       30.15F
CHEHALIS       CLOUDY    54  50  87 CALM      30.16S
KELSO          PTCLDY    48  43  81 CALM      30.21F
VANCOUVER      CLEAR     51  45  79 CALM      30.16S
SCAPPOOSE, OR  CLEAR     47  45  93 CALM      30.15F
PORTLAND, OR   PTCLDY    54  47  77 CALM      30.16S
$$

WAZ021-516-517-300800-
WASHINGTON COAST

CITY           SKY/WX    TMP DP  RH WIND       PRES   REMARKS
FORKS          LGT RAIN  53  53 100 S9        30.10F FOG
HOQUIAM        CLOUDY    54  52  93 SE5       30.15F
ASTORIA, OR    CLOUDY    53  50  89 CALM      30.16F
$$

WAZ019-023-024-040-518-519-300800-
CASCADE MOUNTAINS AND COLUMBIA GORGE

CITY           SKY/WX    TMP DP  RH WIND       PRES   REMARKS
TROUTDALE, OR  CLEAR     48  42  80 E6        30.15S
THE DALLES, OR PTCLDY    54  39  57 CALM      30.13F
$$

WAZ026-027-041>044-520-521-300800-
EAST SLOPES

CITY           SKY/WX    TMP DP  RH WIND       PRES   REMARKS
OMAK           CLOUDY    53  39  59 S3        30.09F
WENATCHEE      CLOUDY    54  40  59 NW8       30.13R
ELLENSBURG     PTCLDY    49  40  71 NW10      30.13S
YAKIMA         PTCLDY    50  39  66 W6        30.13S
$$

WAZ028-034-035-300800-
COLUMBIA BASIN

CITY           SKY/WX    TMP DP  RH WIND       PRES   REMARKS
EPHRATA        MOCLDY    53  40  61 N7        30.10F
MOSES LAKE     MOCLDY    49  41  74 E3        30.12S
PASCO          CLEAR     47  40  76 W3        30.12S
HERMISTON, OR  CLEAR     50  38  63 CALM      30.12S
$$

WAZ036>038-300800-
NORTHEAST WASHINGTON

CITY           SKY/WX    TMP DP  RH WIND       PRES   REMARKS
SPOKANE GEIGER PTCLDY    49  37  63 S7        30.13S
SPOKANE FELTS  CLEAR     43  38  82 NE3       30.14S
FAIRCHILD AFB  NOT AVBL
COEURDALENE,ID CLEAR     39  34  81 CALM      30.15S
DEER PARK      CLEAR     37  34  89 CALM      30.13F
$$

WAZ029>033-300800-
SOUTHEAST WASHINGTON

CITY           SKY/WX    TMP DP  RH WIND       PRES   REMARKS
PULLMAN        PTCLDY    47  38  71 E3        30.16S
LEWISTON, ID   CLEAR     54  39  57 SW3       30.14S
WALLA WALLA    CLEAR     54  38  54 SE8       30.12F
PENDLETON, OR  CLEAR     45  41  86 SE8       30.13F
$$


USA.gov is the U.S. government's official web portal to all federal, state and local government web resources and services.